Tracking 28126 objects as of 2-Oct-2023
HD Live streaming from Space Station
objects crossing your sky now

TIANQI 23

Track TIANQI 23 now!
10-day predictions


NORAD ID: 57794
Int'l Code: 2023-135C
Perigee: 810.8 km
Apogee: 830.5 km
Inclination: 50.0 °
Period: 101.2 minutes
Semi major axis: 7191 km
RCS: Unknown
Launch date: September 5, 2023
Source: People's Republic of China (PRC)
Launch site: Yellow Sea Launch Area, China (YSLA)
Your satellite tracking list
Your tracking list is empty




NASA's NSSDC Master Catalog

Two Line Element Set (TLE):
1 57794U 23135C   23274.76036247  .00000875  00000-0  45150-3 0  9997
2 57794  49.9744 352.2947 0013695  50.7011 309.5114 14.23506632  3773
Source of the keplerian elements: AFSPC